Regional Weather Roundup
Issued by NWS

Home | Current Version | Previous Version | Graphics & Text | Print | Product List | Glossary On
Versions: 1 2 3 4 5 6 7 8 9 10 11 12 13 14 15 16 17 18 19 20 21 22 23 24 25 26 27 28 29 30 31 32 33 34 35 36 37 38 39 40 41 42 43 44 45 46 47 48 49 50
000
ASUS45 KTFX 271019
RWRMT
MONTANA HOURLY WEATHER ROUNDUP
NATIONAL WEATHER SERVICE GREAT FALLS MT
419 AM MDT FRI MAR 27 2015

NOTE: "FAIR" INDICATES FEW OR NO CLOUDS BELOW 12000 FEET WITH NO
SIGNIFICANT WEATHER AND/OR OBSTRUCTIONS TO VISIBILITY.

* THESE STATIONS ARE NOT UNDER NWS QUALITY CONTROL. THEY DO NOT
   REPORT WEATHER SUCH AS PRECIPITATION OR FOG.

MTZ001>007-043-271100-
WEST OF THE DIVIDE
CITY           SKY/WX    TMP DP  RH WIND       PRES   REMARKS
KALISPELL      FOG       30  30 100 CALM      30.21F VSB 3
MISSOULA       CLEAR     34  34 100 CALM      30.26F
BUTTE          PTCLDY    30  27  89 S3        30.27F
MULLAN PASS    CLEAR     39  37  93 S7        30.23F WCI  34
* ESSEX        N/A       34  33  96 N/A        N/A
* EUREKA APT   CLEAR     43  37  79 CALM      30.20R
* HAMILTON APT CLEAR     45  36  71 S16       30.23F
* LIBBY APT    PTCLDY    32  30  92 CALM      30.21S
* LINCOLN      N/A       45  36  71 S3         N/A
* LOOKOUT PASS N/A       38  38 100 S3         N/A
* POLSON       N/A       39  38  96 N/A        N/A
* RONAN APT    CLEAR     36  34  92 N/A        N/A
* SEELEY LAKE  N/A       29  28  96 N/A        N/A
* THOMP F APT  CLEAR     37  28  70 NE1G6      N/A
* YAAK HILL    N/A       38  36  93 N/A        N/A
$$

MTZ008-052>055-271100-
SOUTHWEST MONTANA
CITY           SKY/WX    TMP DP  RH WIND       PRES   REMARKS
BOZEMAN        PTCLDY    37  34  89 S8        30.22F WCI  31
DILLON         CLEAR     39  30  70 W6        30.26F WCI  35
* W YELLOWSTON CLEAR     27  26  96 N/A        N/A
* THREE FORKS  PTCLDY    39  36  89 N/A        N/A
* TWIN BRIDGES CLEAR     37  28  70 SE5        N/A   WCI  33
* BOULDER HILL N/A       48  28  46 S9G15      N/A
* HOMESTAKE PS N/A       41  31  68 W6         N/A
* MONIDA PASS  N/A       32  30  92 E3         N/A
* RAYNOLDS PAS N/A       31  19  61 S4         N/A
* WHITEHALL    N/A       46  33  61 W7         N/A
* WISE RIVER   N/A       32  30  92 W3         N/A
$$

MTZ009>010-012-014-046-048-049-054-271100-
EAST SLOPES AND CENTRAL MONTANA
CITY           SKY/WX    TMP DP  RH WIND       PRES   REMARKS
CUT BANK       CLOUDY    52  34  50 W26G36    30.05F
GREAT FALLS    PTCLDY    46  34  63 S13       30.07F
HELENA         MOCLDY    50  36  59 SE6       30.17F
MALMSTROM AFB  PTCLDY    48  36  63 SW16      30.08F
* CONRAD       CLOUDY    48  37  66 S5         N/A
* DEARBORN     N/A       52  34  50 SW4G12     N/A
* EAST GLACIER N/A       48  32  54 W28G40     N/A
* MONARCH      N/A       45  27  49 SW12G17    N/A
* PENDROY      N/A       51  24  35 N2         N/A
* ROGERS PASS  N/A       45  35  68 SE12G26    N/A
* WHITE SULPH  N/A       39  32  76 NE4        N/A
$$

MTZ011-013-016-021-035-040-045-047-050-051-271100-
NORTH CENTRAL MONTANA
CITY           SKY/WX    TMP DP  RH WIND       PRES   REMARKS
HAVRE          MOCLDY    46  37  71 SW14      30.01F
LEWISTOWN      CLEAR     45  36  71 W12       30.09F
* N BAR RANCH  CLEAR     46  34  63 W8        30.09S
* CHINOOK      CLOUDY    48  39  71 W6        30.00S
* FORT BENTON  PTCLDY    48  36  63 SW6       30.06F
* MALTA APT    MOCLDY    37  30  76 N/A        N/A
* CHESTER      N/A       48  36  63 NW9        N/A
* DENTON       N/A       47  33  58 SW11       N/A
* GEYSER       N/A       50  29  44 SW16       N/A
* JUDITH GAP   N/A       44  34  68 NW12       N/A
* LOMA         N/A       46  36  68 W5         N/A
$$

MTZ017>020-022>027-061-062-271100-
NORTHEAST MONTANA
CITY           SKY/WX    TMP DP  RH WIND       PRES   REMARKS
GLASGOW        CLOUDY    37  30  76 SE3       29.95F
GLENDIVE       MOCLDY    37  32  82 S9        29.98F WCI  30
JORDAN         PTCLDY    41  36  82 W6        29.99S
SIDNEY         CLOUDY    36  30  79 S6        29.98F WCI  31
WOLF POINT     MOCLDY    36  32  85 CALM      29.95F
* BEAVER HILL  N/A       37  33  85 SE13       N/A   WCI  29
* CIRCLE       N/A       40  33  76 SW3        N/A
* LINDSAY DVD  N/A       35  32  89 E4         N/A
* NAVAJO       N/A       34  32  92 S9         N/A   WCI  27
* PLENTYWOOD A MOCLDY    36  32  85 SE8       29.96F WCI  30
* POPLAR APT   MOCLDY    36  34  92 N3        29.96F
* SACO         N/A       32  27  82 SW2        N/A
$$

MTZ028>042-056>058-271100-
SOUTHCENTRAL AND SOUTHEAST MONTANA
CITY           SKY/WX    TMP DP  RH WIND       PRES   REMARKS
BAKER          CLOUDY    36  30  79 SE10      30.01F WCI  29
BILLINGS       CLOUDY    52  36  55 W10       30.10S
LIVINGSTON     PTCLDY    50  34  54 W17G23    30.18S
MILES CITY     PTCLDY    39  34  82 W6        30.00F WCI  35
* BIG TIMBER A PTCLDY    52  34  50 SW26G31   30.13F
* FORSYTH APT  MOCLDY    48  37  66 SW6       30.03S
* LAUREL APT   MOCLDY    52  30  43 W6         N/A
* ROUNDUP APT  MOCLDY    52  34  50 W5         N/A
* ALZADA       N/A       35  31  85 SE4        N/A
* HYSHAM       N/A       52  33  48 W6G14      N/A
* LAME DEER    N/A       48  36  63 NW9G15     N/A
* REED POINT   N/A       54  33  45 W12        N/A
* ROSCOE HILL  N/A       54  16  22 W7G12      N/A
$$

REGIONAL REPORTS...DAKOTAS
CITY           SKY/WX    TMP DP  RH WIND       PRES   REMARKS
WILLISTON      CLOUDY    37  28  70 S9        30.01F WCI  30
DICKINSON      CLOUDY    34  28  79 S14       30.03F WCI  24
BEACH          CLOUDY    36  36 100 S15G21    29.99F WCI  27
CROSBY         MOCLDY    34  30  85 S12       30.00F WCI  25
TIOGA          CLOUDY    32  32 100 SE13      30.05F WCI  22
WATFORD CITY   MOCLDY    34  30  85 SE7       30.00F WCI  28
BISMARCK       CLOUDY    27  16  63 SE13      30.20S WCI  16
GRAND FORKS    PTCLDY    12  10  92 CALM      30.28F
FARGO          CLEAR     10   7  88 CALM      30.28F
BUFFALO SD     CLOUDY    34  30  85 S9        29.99F WCI  27
RAPID CITY     CLOUDY    34  28  79 SE7       30.08F WCI  28
$$

REGIONAL REPORTS...WYOMING/IDAHO/WASHINGTON
CITY           SKY/WX    TMP DP  RH WIND       PRES   REMARKS
GILLETTE       MOCLDY    45  39  80 W13       30.08S
SHERIDAN       CLOUDY    48  36  63 W3        30.11S
CODY           PTCLDY    54  30  40 W14G22    30.14F
YELLOWSTONE LA PTCLDY    25  21  85 CALM      30.36F
SALMON         CLEAR     34  30  85 CALM      30.30S
MULLAN PASS    CLEAR     39  37  93 S7        30.23S WCI  34
SAND POINT     FOG       36  36 100 CALM      30.20F VSB 1/2
SPOKANE        FAIR      46  45  96 NE8       30.16F
$$

REGIONAL REPORTS...ALBERTA
CITY           SKY/WX    TMP DP  RH WIND       PRES   REMARKS
CALGARY        MOCLDY    48  28  46 CALM      29.97F
LETHBRIDGE     MOCLDY    54  36  51 W30G39    29.99F
MEDICINE HAT   CLEAR     45  39  80 S10       29.97S
EDMONTON       FAIR      34  28  79 SW2       29.91R
WATERTON GATE  N/A       48  34  59 SW15G23    N/A
CARDSTON       N/A       52  32  47 W15G25     N/A
MILK RIVER     N/A       48  36  63 W7         N/A
$$

REGIONAL REPORTS...SASKATCHEWAN
CITY           SKY/WX    TMP DP  RH WIND       PRES   REMARKS
SWIFT CURRENT  PTCLDY    39  34  82 W12       29.91F WCI  32
MOOSE JAW      CLOUDY    36  32  85 E2        29.91F
REGINA         MOCLDY    32  30  92 SE15      29.93F WCI  22
ASSINIBOIA     N/A       34  30  85 W7         N/A   WCI  28
CORONACH       N/A       34  32  92 SE5        N/A   WCI  29

$$




USA.gov is the U.S. government's official web portal to all federal, state and local government web resources and services.